GW4332 Weather Reports


Display with metric or nautical units.
time (UTC)temp
F
wind
direction
speed
MPH
gust
MPH
rain 1hr
in
rain 24hr
in
rain mn
in
humidity
%
barometer
mb
20260502164029 64 301 8.0 10.0 0.00 0.00 0.00 68 1015.3
20260502163030 64 298 9.0 11.0 0.00 0.00 0.00 68 1015.3
20260502162030 64 297 8.0 11.0 0.00 0.00 0.00 68 1015.4
20260502161029 64 300 8.0 10.0 0.00 0.00 0.00 70 1015.4
20260502152030 64 304 7.0 10.0 0.00 0.00 0.00 75 1015.7
20260502151029 64 299 9.0 11.0 0.00 0.00 0.00 76 1015.8
20260502123029 64 251 11.0 13.0 0.00 0.00 0.00 78 1016.9
20260502122030 64 252 11.0 15.0 0.00 0.00 0.00 78 1016.9
20260502121030 64 245 12.0 14.0 0.00 0.00 0.00 77 1016.9
20260502115030 64 258 12.0 14.0 0.00 0.00 0.00 74 1017.1
20260502114030 65 254 10.0 13.0 0.00 0.00 0.00 74 1017.1
20260502113029 65 257 10.0 13.0 0.00 0.00 0.00 74 1017.2
20260502112030 65 257 11.0 13.0 0.00 0.00 0.00 74 1017.3
20260502111029 64 248 10.0 12.0 0.00 0.00 0.00 74 1017.3
20260502110030 64 255 10.0 12.0 0.00 0.00 0.00 73 1017.3
20260502105029 64 250 9.0 12.0 0.00 0.00 0.00 73 1017.4
20260502104030 63 250 10.0 13.0 0.00 0.00 0.00 72 1017.5
20260502103029 63 249 10.0 12.0 0.00 0.00 0.00 71 1017.5
20260502102030 64 240 9.0 11.0 0.00 0.00 0.00 69 1017.6
20260502101029 64 234 10.0 14.0 0.00 0.00 0.00 68 1017.6
20260502091030 62 81 1.0 3.0 0.00 0.00 0.00 62 1017.3
20260502071029 59 188 2.0 6.0 0.00 0.00 0.00 55 1017.8
20260502070030 58 190 3.0 6.0 0.00 0.00 0.00 55 1017.8
20260502065030 59 174 2.0 7.0 0.00 0.00 0.00 55 1017.8
20260502064029 59 200 2.0 5.0 0.00 0.00 0.00 53 1017.8
20260502063030 59 153 2.0 9.0 0.00 0.00 0.00 52 1017.8
20260502062030 59 159 2.0 5.0 0.00 0.00 0.00 52 1017.8
20260502061029 59 129 2.0 7.0 0.00 0.00 0.00 51 1017.6
20260502060030 59 109 3.0 7.0 0.00 0.00 0.00 52 1017.4
20260502055030 57 112 2.0 6.0 0.00 0.00 0.00 54 1017.4
20260502054029 57 121 2.0 6.0 0.00 0.00 0.00 55 1017.6
20260502053030 56 112 2.0 8.0 0.00 0.00 0.00 55 1017.6
20260502052030 55 118 2.0 7.0 0.00 0.00 0.00 56 1017.6
20260502051029 55 112 2.0 7.0 0.00 0.00 0.00 56 1017.5
20260502050030 54 109 3.0 9.0 0.00 0.00 0.00 57 1017.5
20260502045030 54 119 2.0 8.0 0.00 0.00 0.00 57 1017.4
20260502044029 54 130 2.0 8.0 0.00 0.00 0.00 58 1017.4
20260502043029 53 119 2.0 7.0 0.00 0.00 0.00 58 1017.5
20260502042030 53 88 3.0 8.0 0.00 0.00 0.00 57 1017.5
20260502041029 54 121 3.0 8.0 0.00 0.00 0.00 57 1017.6
20260502040030 54 105 3.0 9.0 0.00 0.00 0.00 56 1017.6
20260502035029 54 123 1.0 5.0 0.00 0.00 0.00 56 1017.6
20260502034029 54 105 2.0 7.0 0.00 0.00 0.00 56 1017.8
20260502033030 54 93 4.0 9.0 0.00 0.00 0.00 56 1017.9
20260502032030 54 104 4.0 10.0 0.00 0.00 0.00 55 1017.8
20260502031030 55 91 4.0 9.0 0.00 0.00 0.00 55 1017.9
20260502030029 55 105 4.0 10.0 0.00 0.00 0.00 55 1018.0
20260502025030 55 113 4.0 9.0 0.00 0.00 0.00 54 1018.1
20260502024030 55 96 4.0 9.0 0.00 0.00 0.00 54 1018.1
20260502023029 56 86 4.0 9.0 0.00 0.00 0.00 53 1018.1
20260502022029 56 96 5.0 9.0 0.00 0.00 0.00 53 1018.2
20260502021030 56 103 5.0 10.0 0.00 0.00 0.00 53 1018.2
20260502020030 56 99 4.0 10.0 0.00 0.00 0.00 52 1018.3
20260502015029 57 112 3.0 8.0 0.00 0.00 0.00 51 1018.3
20260502014029 57 93 4.0 8.0 0.00 0.00 0.00 51 1018.4
20260502013030 57 116 4.0 8.0 0.00 0.00 0.00 50 1018.5
20260502012030 58 91 4.0 9.0 0.00 0.00 0.00 49 1018.6
20260502011029 58 111 3.0 10.0 0.00 0.00 0.00 49 1018.7
20260502010029 58 115 3.0 8.0 0.00 0.00 0.00 48 1018.9
20260502005030 59 105 4.0 8.0 0.00 0.00 0.00 48 1019.1
20260502004030 59 97 5.0 10.0 0.00 0.00 0.00 47 1019.3
20260502003030 59 117 4.0 9.0 0.00 0.00 0.00 47 1019.3
20260502002029 60 102 4.0 9.0 0.00 0.00 0.00 46 1019.5
20260502001030 60 106 4.0 9.0 0.00 0.00 0.00 45 1019.5
20260502000030 61 97 4.0 9.0 0.00 0.00 0.00 45 1019.7
20260501235030 61 109 3.0 8.0 0.00 0.00 0.00 44 1019.7
20260501234029 61 126 2.0 7.0 0.00 0.00 0.00 43 1019.9
20260501233029 62 108 3.0 8.0 0.00 0.00 0.00 43 1019.9
20260501232030 62 95 2.0 7.0 0.00 0.00 0.00 42 1020.0
20260501231030 62 112 3.0 7.0 0.00 0.00 0.00 42 1020.1
20260501230030 62 101 3.0 8.0 0.00 0.00 0.00 42 1020.0
20260501225029 63 121 3.0 8.0 0.00 0.00 0.00 41 1020.1
20260501224029 63 109 3.0 8.0 0.00 0.00 0.00 40 1020.2
20260501223030 63 104 2.0 7.0 0.00 0.00 0.00 40 1020.2
20260501222030 63 122 2.0 6.0 0.00 0.00 0.00 40 1020.3
20260501221029 64 148 1.0 3.0 0.00 0.00 0.00 39 1020.3
20260501215030 64 129 1.0 4.0 0.00 0.00 0.00 38 1020.4
20260501214030 65 132 1.0 8.0 0.00 0.00 0.00 38 1020.4
20260501213030 65 127 1.0 6.0 0.00 0.00 0.00 37 1020.5
20260501212029 65 129 1.0 7.0 0.00 0.00 0.00 36 1020.5
20260501211029 66 123 2.0 7.0 0.00 0.00 0.00 36 1020.5
20260501210029 66 106 1.0 7.0 0.00 0.00 0.00 35 1020.6
20260501205030 67 134 2.0 7.0 0.00 0.00 0.00 35 1020.7
20260501204030 67 140 0.0 5.0 0.00 0.00 0.00 34 1020.7
20260501203030 68 117 1.0 7.0 0.00 0.00 0.00 34 1020.8
20260501202030 68 218 1.0 4.0 0.00 0.00 0.00 34 1020.8
20260501201029 68 124 1.0 4.0 0.00 0.00 0.00 33 1020.8
20260501200029 69 116 1.0 4.0 0.00 0.00 0.00 33 1020.8
20260501195030 70 109 1.0 4.0 0.00 0.00 0.00 33 1020.8
20260501194030 70 136 0.0 3.0 0.00 0.00 0.00 31 1020.8
20260501193030 71 109 1.0 3.0 0.00 0.00 0.00 31 1020.7
20260501192029 72 110 1.0 3.0 0.00 0.00 0.00 30 1020.7
20260501191030 72 158 1.0 4.0 0.00 0.00 0.00 29 1020.7
20260501190030 73 93 1.0 4.0 0.00 0.00 0.00 28 1020.7
20260501185029 74 114 2.0 4.0 0.00 0.00 0.00 27 1020.8
20260501184030 74 120 2.0 6.0 0.00 0.00 0.00 26 1020.8
20260501183030 75 122 2.0 6.0 0.00 0.00 0.00 26 1020.8
20260501182030 75 106 3.0 9.0 0.00 0.00 0.00 25 1020.8
20260501181030 76 134 3.0 9.0 0.00 0.00 0.00 25 1020.8
20260501180030 76 141 2.0 9.0 0.00 0.00 0.00 24 1020.7